SCP
0 0 0 0 0 0 0 0 0 0 0 0 0 0 0 0 0 0 0 0 0 0 0 0 0 0 0 0 0 0 0 0 0 0 0 0 0 0 0 0 0 0 0
0 0 0 0 0 0 0 0 0 0 0 0 0 0 0 0 0 0 0 0 0 0 0 0 0 0 0 0 0 0 0 0 0 0 0 0 0 0 0 0 0 0 0
0 0 0 0 0 0 0 0 0 0 0 0 0 0 0 0 0 0 0 0 0 0 0 0 0 0 0 0 0 0 0 0 0 0 0 0 0 0 0 0 0 0 0
0 0 0 0 0 0 0 0 0 0 0 0 0 0 0 0 0 0 0 0 0 0 0 0 0 0 0 0 0 0 0 0 0 0 0 0 0 0 0 0 0 0 0
0 0 0 0 0 0 0 0 0 0 0 0 0 0 0 0 0 0 0 0 0 0 0 0 0 0 0 0 0 0 0 0 0 0 0 0 0 0 0 0 0 0 0
0 0 0 0 0 0 0 0 0 0 0 0 0 0 0 0 0 0 0 0 0 0 0 0 0 0 0 0 0 0 0 0 0 0 0 0 0 0 0 0 0 0 0
0 0 0 0 0 0 0 0 0 0 0 0 0 0 0 0 0 0 0 0 0 0 0 0 0 0 0 0 0 0 0 0 0 0 0 0 0 0 0 0 0 0 0
0 0 0 0 0 0 0 0 0 0 0 0 0 0 0 0 0 0 0 0 0 0 0 0 0 0 0 0 0 0 0 0 0 0 0 0 0 0 0 0 0 0 0
0 0 0 0 0 0 0 0 0 0 0 0 0 0 0 0 0 0 0 0 0 0 0 0 0 0 0 0 0 0 0 0 0 0 0 0 0 0 0 0 0 0 0
0 0 0 0 0 0 0 0 0 0 0 0 0 0 0 0 0 0 0 0 0 0 0 0 0 0 0 0 0 0 0 0 0 0 0 0 0 0 0 0 0 0 0
0 0 0 0 0 0 0 0 0 0 0 0 0 0 0 0 0 0 0 0 0 0 0 0 0 0 0 0 0 0 0 0 0 0 0 0 0 0 0 0 0 0 0
0 0 0 0 0 0 0 0 0 0 0 0 0 0 0 0 0 0 0 0 0 0 0 0 0 0 0 0 0 0 0 0 0 0 0 0 0 0 0 0 0 0 0
0 0 0 0 0 0 0 0 0 0 0 0 0 0 0 0 0 0 0 0 0 0 0 0 0 0 0 0 0 0 0 0 0 0 0 0 0 0 0 0 0 0 0
0 0 0 0 0 0 0 0 0 0 0 0 0 0 0 0 0 0 0 0 0 0 0 0 0 0 0 0 0 0 0 0 0 0 0 0 0 0 0 0 0 0 0
0 0 0 0 0 0 0 0 0 0 0 0 0 0 0 0 0 0 0 0 0 0 0 0 0 0 0 0 0 0 0 0 0 0 0 0 0 0 0 0 0 0 0
0 0 0 0 0 0 0 0 0 0 0 0 0 0 0 0 0 0 0 0 0 0 0 0 0 0 0 0 0 0 0 0 0 0 0 0 0 0 0 0 0 0 0
0 0 0 0 0 0 0 0 0 0 0 0 0 0 0 0 0 0 0 0 0 0 0 0 0 0 0 0 0 0 0 0 0 0 0 0 0 0 0 0 0 0 0
0 0 0 0 0 0 0 0 0 0 0 0 0 0 0 0 0 0 0 0 0 0 0 0 0 0 0 0 0 0 0 0 0 0 0 0 0 0 0 0 0 0 0
0 0 0 0 0 0 0 0 0 0 0 0 0 0 0 0 0 0 0 0 0 0 0 0 0 0 0 0 0 0 0 0 0 0 0 0 0 0 0 0 0 0 0
0 0 0 0 0 0 0 0 0 0 0 0 0 0 0 0 0 0 0 0 0 0 0 0 0 0 0 0 0 0 0 0 0 0 0 0 0 0 0 0 0 0 0
0 0 0 0 0 0 0 0 0 0 0 0 0 0 0 0 0 0 0 0 0 0 0 0 0 0 0 0 0 0 0 0 0 0 0 0 0 0 0 0 0 0 0
0 0 0 0 0 0 0 0 0 0 0 0 0 0 0 0 0 0 0 0 0 0 0 0 0 0 0 0 0 0 0 0 0 0 0 0 0 0 0 0 0 0 0
0 0 0 0 0 0 0 0 0 0 0 0 0 0 0 0 0 0 0 0 0 0 0 0 0 0 0 0 0 0 0 0 0 0 0 0 0 0 0 0 0 0 0
0 0 0 0 0 0 0 0 0 0 0 0 0 0 0 0 0 0 0 0 0 0 0 0 0 0 0 0 0 0 0 0 0 0 0 0 0 0 0 0 0 0 0
0 0 0 0 0 0 0 0 0 0 0 0 0 0 0 0 0 0 0 0 0 0 0 0 0 0 0 0 0 0 0 0 0 0 0 0 0 0 0 0 0 0 0
0 0 0 0 0 0 0 0 0 0 0 0 0 0 0 0 0 0 0 0 0 0 0 0 0 0 0 0 0 0 0 0 0 0 0 0 0 0 0 0 0 0 0
Wind_Speed_500mb
59 57 54 48 43 40 38 38 44 50 53 57 58 56 53 47 44 38 34 33 29 28 28 24 21 20 18 15 13 9 9 10 13 14 14 12 6 1 3 7 16 25 33
71 69 65 56 48 43 41 42 44 52 58 58 58 56 54 51 47 42 40 35 30 32 32 30 27 24 19 16 12 10 8 13 9 9 10 11 7 6 12 14 20 33 36
89 80 72 62 54 51 48 46 47 55 63 61 61 62 59 55 49 48 43 39 37 36 34 31 25 20 14 11 8 6 5 6 9 8 5 6 7 13 14 14 23 35 38
88 86 77 67 62 56 48 50 57 63 61 63 63 60 59 58 55 51 48 48 42 38 32 26 22 17 13 9 7 8 9 11 8 8 10 11 11 7 8 17 27 36 40
93 95 91 76 65 59 57 60 62 61 64 63 62 61 61 60 59 57 56 53 48 39 32 25 20 14 11 7 8 11 12 13 14 12 10 11 13 17 19 24 39 35 38
85 89 89 76 68 65 64 64 66 65 65 64 63 63 66 65 67 66 62 57 49 40 32 26 19 14 8 7 10 11 12 12 12 13 13 12 11 15 20 28 36 40 42
74 83 94 85 77 75 76 73 71 70 68 65 65 65 66 63 66 66 61 54 47 40 33 25 19 13 8 6 6 8 10 11 12 12 12 13 14 17 22 28 35 44 48
64 76 93 88 81 80 81 79 78 74 71 70 69 68 67 69 67 60 54 47 41 36 31 26 19 12 6 1 4 6 7 8 10 11 12 13 15 16 19 25 33 44 50
63 76 88 86 82 81 82 82 80 76 74 73 71 71 71 70 65 59 52 46 41 35 31 26 18 12 7 3 1 5 6 6 7 8 10 12 15 18 22 27 32 37 45
61 72 83 80 76 78 82 82 79 79 77 77 76 74 74 71 65 60 54 48 41 37 32 26 20 15 11 9 6 4 3 4 6 7 9 12 16 20 24 28 31 36 41
62 72 76 75 73 76 82 83 83 81 81 82 81 78 78 73 67 59 53 46 42 39 33 28 24 21 18 14 9 5 3 3 4 8 12 15 19 23 27 30 33 36 43
58 67 72 73 75 79 84 86 84 85 87 85 81 81 79 76 70 62 55 50 47 41 35 32 29 26 23 16 11 7 5 4 6 7 12 17 21 25 30 33 36 40 45
54 62 69 76 78 81 85 88 90 90 88 86 85 84 81 78 72 64 59 56 51 45 42 39 36 33 27 20 15 11 9 9 9 11 14 18 23 27 32 36 40 44 48
51 61 70 78 80 83 89 92 93 93 91 90 88 86 84 78 71 67 64 59 53 49 47 44 42 37 32 26 21 16 14 15 16 17 19 23 27 30 34 39 43 47 51
50 62 72 79 83 88 92 96 97 97 96 94 92 90 83 77 73 71 67 61 55 53 50 49 46 42 39 32 26 23 24 24 24 23 26 31 32 34 38 42 44 48 54
60 66 70 78 85 93 99 103 103 101 100 98 96 90 84 78 75 72 68 63 59 58 56 53 50 47 43 38 31 33 32 32 33 33 36 38 37 39 42 45 48 51 55
69 71 77 81 85 91 98 107 105 104 101 100 95 89 84 81 77 74 70 66 63 61 59 55 56 53 49 41 39 40 39 41 41 44 44 43 42 44 46 48 51 54 55
67 71 75 78 81 85 90 96 103 103 100 98 93 89 85 82 78 76 72 69 65 61 54 57 63 57 52 47 46 45 46 47 49 51 49 50 49 49 51 54 57 57 57
64 73 73 75 73 72 79 87 90 92 93 95 94 90 88 81 80 78 75 67 63 56 61 69 67 61 55 52 50 51 53 53 54 54 54 53 55 54 55 59 61 62 62
55 56 57 59 59 62 67 70 73 78 83 87 89 88 81 86 87 77 69 62 61 65 70 72 66 64 59 56 56 56 60 61 59 57 57 57 59 60 60 61 61 66 63
40 38 38 45 46 43 50 55 57 60 54 59 65 70 76 82 78 69 66 67 66 77 69 66 65 63 62 61 61 63 67 68 65 62 61 61 60 63 63 62 63 66 62
27 30 32 36 38 39 43 44 43 42 41 41 46 57 65 67 66 68 70 72 68 65 63 64 63 63 64 65 67 70 74 70 68 69 67 65 63 65 67 67 63 52 51
31 32 35 40 39 38 40 38 36 34 36 39 40 42 48 53 56 60 60 60 59 61 63 65 64 64 65 69 72 73 71 69 69 71 71 69 67 68 68 55 50 59 69
28 30 32 32 32 31 29 25 25 27 29 30 33 36 42 45 48 50 51 53 56 59 61 63 64 65 67 69 69 67 65 64 65 67 66 67 66 67 63 66 63 65 68
28 27 28 31 34 36 37 34 31 27 27 28 31 34 36 39 44 47 49 52 53 55 57 59 61 63 68 66 64 63 60 60 58 62 68 72 73 73 73 69 67 69 67
34 36 36 36 38 35 30 25 21 21 24 27 31 34 36 38 44 47 49 51 53 56 58 60 63 62 62 60 58 57 52 51 48 51 63 67 69 75 74 73 69 70 70
Wind_Direction_500mb
232 226 227 228 228 225 225 219 209 192 192 188 189 193 196 195 198 197 204 192 188 183 185 187 187 177 168 160 141 126 98 107 114 135 130 130 135 316 360 353 344 346 350
226 223 225 225 226 226 220 211 202 190 185 191 192 194 195 195 196 197 199 190 187 174 167 167 164 158 163 156 151 139 127 116 148 192 180 171 191 315 300 315 338 348 350
228 220 220 222 220 218 214 207 197 189 190 191 193 193 193 192 193 194 192 183 178 171 164 158 160 159 155 154 146 126 104 98 97 104 180 209 222 302 264 295 329 341 349
231 225 221 220 220 216 208 202 194 191 194 195 196 199 199 195 194 193 188 177 170 164 161 162 163 160 157 149 126 76 47 38 35 26 20 9 349 340 304 312 335 352 354
237 225 220 220 218 209 206 200 196 195 196 198 198 198 199 201 195 186 178 171 166 168 166 165 162 164 153 130 75 54 40 23 14 15 24 358 341 338 332 331 334 342 353
234 228 218 214 211 205 203 199 195 198 199 200 201 201 205 200 188 180 177 173 171 169 167 168 169 167 152 85 52 26 12 10 11 15 15 4 354 343 342 333 335 341 348
228 221 209 206 204 202 199 197 199 200 201 202 202 203 203 202 190 183 181 178 176 175 174 173 177 169 128 74 16 9 5 3 359 2 2 356 346 345 341 338 336 336 337
225 221 209 206 205 204 202 200 201 202 204 206 205 201 200 194 189 187 185 185 183 181 179 180 177 160 140 81 15 352 349 354 359 4 360 352 341 340 332 330 334 332 334
222 217 207 207 207 207 206 206 201 203 207 206 200 195 193 193 191 187 186 187 185 186 185 184 181 178 189 197 274 314 330 351 351 346 342 339 331 329 330 330 332 333 330
218 213 209 210 211 212 209 208 206 206 206 204 198 194 193 193 192 191 191 191 191 193 193 193 188 192 198 214 238 278 317 335 339 334 329 328 326 326 326 326 325 326 324
220 216 213 214 216 214 210 209 208 208 206 202 198 197 194 194 195 196 196 197 198 199 202 201 199 201 208 215 221 226 252 286 322 322 325 327 325 322 320 319 317 318 318
224 221 218 216 215 214 211 210 208 207 206 203 201 198 197 197 197 198 199 201 204 205 207 204 205 211 218 219 219 222 226 268 299 320 324 325 323 317 312 311 312 313 311
222 220 219 217 216 214 212 210 209 207 205 203 201 200 201 201 201 201 203 205 207 209 208 208 215 220 220 220 222 227 244 263 283 303 316 321 320 317 312 309 307 307 307
225 223 222 221 219 217 214 211 209 207 205 204 204 204 205 206 206 206 208 210 210 212 212 214 218 221 223 225 229 235 256 265 274 287 301 309 313 312 309 308 308 307 305
229 229 225 224 221 219 217 214 212 208 207 207 207 209 209 209 209 209 211 211 213 215 216 219 220 223 226 229 235 248 255 261 270 283 291 293 298 304 307 305 304 304 304
241 242 233 228 225 222 219 216 214 212 211 211 212 212 212 212 212 213 214 214 216 217 219 224 228 230 231 233 241 252 257 264 271 275 279 283 291 298 301 302 302 302 302
248 244 244 239 231 226 222 219 217 215 213 214 214 215 215 216 216 217 218 219 221 222 226 230 234 233 234 237 247 253 260 266 269 271 274 279 286 291 295 298 298 299 297
250 252 251 246 241 231 226 223 220 218 217 218 218 219 220 221 221 222 223 224 226 227 233 246 238 238 238 243 249 257 262 266 269 271 274 279 284 289 291 295 297 298 294
264 262 256 247 239 232 226 223 222 222 221 223 225 225 224 225 228 227 227 228 233 233 253 245 240 241 244 247 255 259 266 268 270 271 273 278 282 286 287 290 295 297 297
252 252 246 237 234 228 223 222 222 222 223 227 229 230 230 236 232 232 232 241 239 250 252 244 244 246 247 249 256 260 265 267 271 274 276 278 280 283 284 286 290 292 298
245 238 233 229 223 214 212 210 215 219 220 224 231 237 237 236 236 237 237 240 249 245 246 247 248 248 251 252 256 261 264 267 271 274 276 278 280 282 284 285 284 287 290
200 191 190 193 194 193 199 206 216 226 229 232 229 232 233 232 234 236 242 244 244 245 246 247 249 250 252 255 257 260 263 269 272 274 276 278 280 280 281 282 282 276 268
173 179 188 189 194 202 208 215 224 223 223 225 225 224 227 229 233 237 241 242 241 241 243 246 249 253 256 259 262 265 268 267 268 274 278 279 280 281 281 277 268 268 271
183 185 186 193 193 181 177 185 195 196 201 207 211 216 222 227 232 235 237 237 239 241 245 249 253 259 264 267 268 268 269 268 266 268 273 277 280 279 275 275 275 272 277
162 163 162 160 159 158 160 164 172 182 195 204 213 220 226 234 237 234 235 239 243 248 253 257 260 261 262 267 270 271 271 271 270 271 272 274 276 276 277 279 282 280 278
152 148 150 153 155 157 164 175 191 207 221 227 230 233 236 239 238 239 243 247 252 254 257 259 261 264 268 273 275 274 273 275 279 278 280 284 288 287 288 288 286 283 275
Wind_Speed_850mb
59 57 54 48 43 40 38 38 44 50 53 57 58 56 53 47 44 38 34 33 29 28 28 24 21 20 18 15 13 9 9 10 13 14 14 12 6 1 3 7 16 25 33
71 69 65 56 48 43 41 42 44 52 58 58 58 56 54 51 47 42 40 35 30 32 32 30 27 24 19 16 12 10 8 13 9 9 10 11 7 6 12 14 20 33 36
89 80 72 62 54 51 48 46 47 55 63 61 61 62 59 55 49 48 43 39 37 36 34 31 25 20 14 11 8 6 5 6 9 8 5 6 7 13 14 14 23 35 38
88 86 77 67 62 56 48 50 57 63 61 63 63 60 59 58 55 51 48 48 42 38 32 26 22 17 13 9 7 8 9 11 8 8 10 11 11 7 8 17 27 36 40
93 95 91 76 65 59 57 60 62 61 64 63 62 61 61 60 59 57 56 53 48 39 32 25 20 14 11 7 8 11 12 13 14 12 10 11 13 17 19 24 39 35 38
85 89 89 76 68 65 64 64 66 65 65 64 63 63 66 65 67 66 62 57 49 40 32 26 19 14 8 7 10 11 12 12 12 13 13 12 11 15 20 28 36 40 42
74 83 94 85 77 75 76 73 71 70 68 65 65 65 66 63 66 66 61 54 47 40 33 25 19 13 8 6 6 8 10 11 12 12 12 13 14 17 22 28 35 44 48
64 76 93 88 81 80 81 79 78 74 71 70 69 68 67 69 67 60 54 47 41 36 31 26 19 12 6 1 4 6 7 8 10 11 12 13 15 16 19 25 33 44 50
63 76 88 86 82 81 82 82 80 76 74 73 71 71 71 70 65 59 52 46 41 35 31 26 18 12 7 3 1 5 6 6 7 8 10 12 15 18 22 27 32 37 45
61 72 83 80 76 78 82 82 79 79 77 77 76 74 74 71 65 60 54 48 41 37 32 26 20 15 11 9 6 4 3 4 6 7 9 12 16 20 24 28 31 36 41
62 72 76 75 73 76 82 83 83 81 81 82 81 78 78 73 67 59 53 46 42 39 33 28 24 21 18 14 9 5 3 3 4 8 12 15 19 23 27 30 33 36 43
58 67 72 73 75 79 84 86 84 85 87 85 81 81 79 76 70 62 55 50 47 41 35 32 29 26 23 16 11 7 5 4 6 7 12 17 21 25 30 33 36 40 45
54 62 69 76 78 81 85 88 90 90 88 86 85 84 81 78 72 64 59 56 51 45 42 39 36 33 27 20 15 11 9 9 9 11 14 18 23 27 32 36 40 44 48
51 61 70 78 80 83 89 92 93 93 91 90 88 86 84 78 71 67 64 59 53 49 47 44 42 37 32 26 21 16 14 15 16 17 19 23 27 30 34 39 43 47 51
50 62 72 79 83 88 92 96 97 97 96 94 92 90 83 77 73 71 67 61 55 53 50 49 46 42 39 32 26 23 24 24 24 23 26 31 32 34 38 42 44 48 54
60 66 70 78 85 93 99 103 103 101 100 98 96 90 84 78 75 72 68 63 59 58 56 53 50 47 43 38 31 33 32 32 33 33 36 38 37 39 42 45 48 51 55
69 71 77 81 85 91 98 107 105 104 101 100 95 89 84 81 77 74 70 66 63 61 59 55 56 53 49 41 39 40 39 41 41 44 44 43 42 44 46 48 51 54 55
67 71 75 78 81 85 90 96 103 103 100 98 93 89 85 82 78 76 72 69 65 61 54 57 63 57 52 47 46 45 46 47 49 51 49 50 49 49 51 54 57 57 57
64 73 73 75 73 72 79 87 90 92 93 95 94 90 88 81 80 78 75 67 63 56 61 69 67 61 55 52 50 51 53 53 54 54 54 53 55 54 55 59 61 62 62
55 56 57 59 59 62 67 70 73 78 83 87 89 88 81 86 87 77 69 62 61 65 70 72 66 64 59 56 56 56 60 61 59 57 57 57 59 60 60 61 61 66 63
40 38 38 45 46 43 50 55 57 60 54 59 65 70 76 82 78 69 66 67 66 77 69 66 65 63 62 61 61 63 67 68 65 62 61 61 60 63 63 62 63 66 62
27 30 32 36 38 39 43 44 43 42 41 41 46 57 65 67 66 68 70 72 68 65 63 64 63 63 64 65 67 70 74 70 68 69 67 65 63 65 67 67 63 52 51
31 32 35 40 39 38 40 38 36 34 36 39 40 42 48 53 56 60 60 60 59 61 63 65 64 64 65 69 72 73 71 69 69 71 71 69 67 68 68 55 50 59 69
28 30 32 32 32 31 29 25 25 27 29 30 33 36 42 45 48 50 51 53 56 59 61 63 64 65 67 69 69 67 65 64 65 67 66 67 66 67 63 66 63 65 68
28 27 28 31 34 36 37 34 31 27 27 28 31 34 36 39 44 47 49 52 53 55 57 59 61 63 68 66 64 63 60 60 58 62 68 72 73 73 73 69 67 69 67
34 36 36 36 38 35 30 25 21 21 24 27 31 34 36 38 44 47 49 51 53 56 58 60 63 62 62 60 58 57 52 51 48 51 63 67 69 75 74 73 69 70 70
Wind_Direction_850mb
232 226 227 228 228 225 225 219 209 192 192 188 189 193 196 195 198 197 204 192 188 183 185 187 187 177 168 160 141 126 98 107 114 135 130 130 135 316 360 353 344 346 350
226 223 225 225 226 226 220 211 202 190 185 191 192 194 195 195 196 197 199 190 187 174 167 167 164 158 163 156 151 139 127 116 148 192 180 171 191 315 300 315 338 348 350
228 220 220 222 220 218 214 207 197 189 190 191 193 193 193 192 193 194 192 183 178 171 164 158 160 159 155 154 146 126 104 98 97 104 180 209 222 302 264 295 329 341 349
231 225 221 220 220 216 208 202 194 191 194 195 196 199 199 195 194 193 188 177 170 164 161 162 163 160 157 149 126 76 47 38 35 26 20 9 349 340 304 312 335 352 354
237 225 220 220 218 209 206 200 196 195 196 198 198 198 199 201 195 186 178 171 166 168 166 165 162 164 153 130 75 54 40 23 14 15 24 358 341 338 332 331 334 342 353
234 228 218 214 211 205 203 199 195 198 199 200 201 201 205 200 188 180 177 173 171 169 167 168 169 167 152 85 52 26 12 10 11 15 15 4 354 343 342 333 335 341 348
228 221 209 206 204 202 199 197 199 200 201 202 202 203 203 202 190 183 181 178 176 175 174 173 177 169 128 74 16 9 5 3 359 2 2 356 346 345 341 338 336 336 337
225 221 209 206 205 204 202 200 201 202 204 206 205 201 200 194 189 187 185 185 183 181 179 180 177 160 140 81 15 352 349 354 359 4 360 352 341 340 332 330 334 332 334
222 217 207 207 207 207 206 206 201 203 207 206 200 195 193 193 191 187 186 187 185 186 185 184 181 178 189 197 274 314 330 351 351 346 342 339 331 329 330 330 332 333 330
218 213 209 210 211 212 209 208 206 206 206 204 198 194 193 193 192 191 191 191 191 193 193 193 188 192 198 214 238 278 317 335 339 334 329 328 326 326 326 326 325 326 324
220 216 213 214 216 214 210 209 208 208 206 202 198 197 194 194 195 196 196 197 198 199 202 201 199 201 208 215 221 226 252 286 322 322 325 327 325 322 320 319 317 318 318
224 221 218 216 215 214 211 210 208 207 206 203 201 198 197 197 197 198 199 201 204 205 207 204 205 211 218 219 219 222 226 268 299 320 324 325 323 317 312 311 312 313 311
222 220 219 217 216 214 212 210 209 207 205 203 201 200 201 201 201 201 203 205 207 209 208 208 215 220 220 220 222 227 244 263 283 303 316 321 320 317 312 309 307 307 307
225 223 222 221 219 217 214 211 209 207 205 204 204 204 205 206 206 206 208 210 210 212 212 214 218 221 223 225 229 235 256 265 274 287 301 309 313 312 309 308 308 307 305
229 229 225 224 221 219 217 214 212 208 207 207 207 209 209 209 209 209 211 211 213 215 216 219 220 223 226 229 235 248 255 261 270 283 291 293 298 304 307 305 304 304 304
241 242 233 228 225 222 219 216 214 212 211 211 212 212 212 212 212 213 214 214 216 217 219 224 228 230 231 233 241 252 257 264 271 275 279 283 291 298 301 302 302 302 302
248 244 244 239 231 226 222 219 217 215 213 214 214 215 215 216 216 217 218 219 221 222 226 230 234 233 234 237 247 253 260 266 269 271 274 279 286 291 295 298 298 299 297
250 252 251 246 241 231 226 223 220 218 217 218 218 219 220 221 221 222 223 224 226 227 233 246 238 238 238 243 249 257 262 266 269 271 274 279 284 289 291 295 297 298 294
264 262 256 247 239 232 226 223 222 222 221 223 225 225 224 225 228 227 227 228 233 233 253 245 240 241 244 247 255 259 266 268 270 271 273 278 282 286 287 290 295 297 297
252 252 246 237 234 228 223 222 222 222 223 227 229 230 230 236 232 232 232 241 239 250 252 244 244 246 247 249 256 260 265 267 271 274 276 278 280 283 284 286 290 292 298
245 238 233 229 223 214 212 210 215 219 220 224 231 237 237 236 236 237 237 240 249 245 246 247 248 248 251 252 256 261 264 267 271 274 276 278 280 282 284 285 284 287 290
200 191 190 193 194 193 199 206 216 226 229 232 229 232 233 232 234 236 242 244 244 245 246 247 249 250 252 255 257 260 263 269 272 274 276 278 280 280 281 282 282 276 268
173 179 188 189 194 202 208 215 224 223 223 225 225 224 227 229 233 237 241 242 241 241 243 246 249 253 256 259 262 265 268 267 268 274 278 279 280 281 281 277 268 268 271
183 185 186 193 193 181 177 185 195 196 201 207 211 216 222 227 232 235 237 237 239 241 245 249 253 259 264 267 268 268 269 268 266 268 273 277 280 279 275 275 275 272 277
162 163 162 160 159 158 160 164 172 182 195 204 213 220 226 234 237 234 235 239 243 248 253 257 260 261 262 267 270 271 271 271 270 271 272 274 276 276 277 279 282 280 278
152 148 150 153 155 157 164 175 191 207 221 227 230 233 236 239 238 239 243 247 252 254 257 259 261 264 268 273 275 274 273 275 279 278 280 284 288 287 288 288 286 283 275